New York, NY

4:22 PM EST on November 12, 2019 (GMT -0500)
La Guardia

Weather History for KLGA - September, 2019

Change the Weather History Date:

Friday, September 20, 2019

  Actual Average Record
Temperature  
Mean Temperature 70 °F 68 °F  
Max Temperature 79 °F 75 °F 90 °F (1983)
Min Temperature 60 °F 60 °F 46 °F (1979)
Degree Days  
Heating Degree Days 0 1  
Month to date heating degree days 3 9  
Since 1 July heating degree days 3 10  
Cooling Degree Days 5 4  
Month to date cooling degree days 140 130  
Year to date cooling degree days 1369 1163  
Growing Degree Days 20 (Base 50)    
Moisture  
Dew Point 44 °F    
Average Humidity 44    
Maximum Humidity 60    
Minimum Humidity 27    
Precipitation  
Precipitation 0.00 in 0.13 in 1.72 in (1989)
Month to date precipitation 0.61 2.44  
Year to date precipitation 36.45 32.69  
Snow  
Snow 0.00 in 0.00 in - ()
Month to date snowfall 0.0 0.0  
Since 1 July snowfall 0.0 0.0  
Snow Depth 0.00 in    
Sea Level Pressure  
Sea Level Pressure 30.22 in    
Wind  
Wind Speed 8 mph (West)    
Max Wind Speed 14 mph    
Max Gust Speed -    
Visibility 10 miles    
Events      
T = Trace of Precipitation, MM = Missing Value Source: NWS Daily Summary

Daily Weather History Graph

Daily Weather History Graph

Search for Another Location

Airport or City:

Astronomy

Sep. 20, 2019 Rise Set
Actual Time 6:40 AM EDT 6:56 PM EDT
Civil Twilight 6:13 AM EDT 7:23 PM EDT
Nautical Twilight 5:41 AM EDT 7:55 PM EDT
Astronomical Twilight 5:08 AM EDT 8:28 PM EDT
Moon 10:42 PM EDT (9/20) 12:44 PM EDT (9/20)
Length of Visible Light 13h 10m
Length of Day
12h 15m
Waning Gibbous, 65% of the Moon is Illuminated
Sep 20
Waning Gibbous
Sep 21
Last Quarter
Sep 28
New
Oct 5
First Quarter
Oct 13
Full

Hourly Weather History & Observations

Time (EDT) Temp. Dew Point Humidity Pressure Visibility Wind Dir Wind Speed Gust Speed Precip Events Conditions
12:51 AM 62.1 °F 44.1 °F 52% 30.26 in 10.0 mi SSW 6.9 mph - N/A   Partly Cloudy
1:51 AM 62.1 °F 43.0 °F 50% 30.26 in 10.0 mi SW 6.9 mph - N/A   Partly Cloudy
2:51 AM 61.0 °F 44.1 °F 54% 30.25 in 10.0 mi SW 5.8 mph - N/A   Partly Cloudy
3:51 AM 60.1 °F 46.0 °F 60% 30.25 in 10.0 mi Calm Calm - N/A   Mostly Cloudy
4:51 AM 61.0 °F 46.0 °F 58% 30.25 in 10.0 mi West 6.9 mph - N/A   Mostly Cloudy
5:51 AM 60.1 °F 46.9 °F 62% 30.25 in 10.0 mi WSW 3.5 mph - N/A   Mostly Cloudy
6:51 AM 60.1 °F 45.0 °F 57% 30.26 in 10.0 mi West 4.6 mph - N/A   Mostly Cloudy
7:51 AM 61.0 °F 45.0 °F 56% 30.28 in 10.0 mi NW 8.1 mph - N/A   Scattered Clouds
8:51 AM 63.0 °F 45.0 °F 52% 30.28 in 10.0 mi NW 5.8 mph - N/A   Scattered Clouds
9:51 AM 66.0 °F 44.1 °F 45% 30.27 in 10.0 mi NW 10.4 mph - N/A   Scattered Clouds
10:51 AM 69.1 °F 45.0 °F 42% 30.26 in 10.0 mi WNW 10.4 mph - N/A   Mostly Cloudy
11:51 AM 73.0 °F 45.0 °F 37% 30.23 in 10.0 mi WNW 9.2 mph - N/A   Mostly Cloudy
12:51 PM 75.0 °F 46.0 °F 36% 30.21 in 10.0 mi NW 8.1 mph - N/A   Mostly Cloudy
1:51 PM 75.9 °F 43.0 °F 31% 30.19 in 10.0 mi WNW 9.2 mph - N/A   Mostly Cloudy
2:51 PM 78.1 °F 41.0 °F 27% 30.17 in 10.0 mi WSW 8.1 mph - N/A   Mostly Cloudy
3:51 PM 78.8 °F 42.8 °F 28% 30.13 in 10.0 mi West 11.5 mph - N/A   Mostly Cloudy
4:51 PM 77.0 °F 41.0 °F 28% 30.14 in 10.0 mi West 6.9 mph - N/A   Mostly Cloudy
5:51 PM 78.8 °F 42.8 °F 28% 30.14 in 10.0 mi WNW 9.2 mph - N/A   Scattered Clouds
6:51 PM 78.8 °F 42.8 °F 28% 30.15 in 10.0 mi West 13.8 mph - N/A   Scattered Clouds
7:51 PM 78.8 °F 42.8 °F 28% 30.16 in 10.0 mi West 9.2 mph - N/A   Partly Cloudy
8:51 PM 78.8 °F 41.0 °F 26% 30.18 in 10.0 mi West 11.5 mph - N/A   Partly Cloudy
9:51 PM 78.8 °F 42.8 °F 28% 30.19 in 10.0 mi West 9.2 mph - N/A   Partly Cloudy
10:51 PM 78.8 °F 42.8 °F 28% 30.17 in 10.0 mi West 9.2 mph - N/A   Partly Cloudy
11:51 PM 69.8 °F 53.6 °F 56% 30.17 in 10.0 mi West 9.2 mph - N/A   Partly Cloudy